FW3849 Weather Reports


Display with metric or nautical units.
time (UTC)temp
F
wind
direction
speed
MPH
gust
MPH
rain 1hr
in
rain 24hr
in
rain mn
in
humidity
%
barometer
mb
20260831183034 93 122 7.0 18.0 0.00 0.00 0.00 30 1012.0
20260831182530 93 156 12.0 18.0 0.00 0.00 0.00 30 1012.1
20260831182028 92 200 11.0 18.0 0.00 0.00 0.00 32 1012.2
20260831181527 92 166 11.0 17.0 0.00 0.00 0.00 32 1012.2
20260831181026 92 187 10.0 16.0 0.00 0.00 0.00 34 1012.2
20260831180525 91 214 6.0 19.0 0.00 0.00 0.00 36 1012.4
20260831180025 91 189 7.0 18.0 0.00 0.00 0.00 35 1012.4
20260831175023 91 243 10.0 19.0 0.00 0.00 0.00 35 1012.5
20260831174522 91 206 11.0 19.0 0.00 0.00 0.00 35 1012.5
20260831174022 90 204 12.0 18.0 0.00 0.00 0.00 37 1012.7
20260831173525 90 165 8.0 18.0 0.00 0.00 0.00 38 1012.7
20260831173021 90 205 9.0 18.0 0.00 0.00 0.00 38 1012.7
20260831172523 90 189 8.0 18.0 0.00 0.00 0.00 39 1012.7
20260831172022 89 177 11.0 18.0 0.00 0.00 0.00 39 1012.8
20260831171519 89 198 9.0 15.0 0.00 0.00 0.00 40 1012.8
20260831171017 89 206 9.0 17.0 0.00 0.00 0.00 41 1012.8
20260831170517 89 196 11.0 17.0 0.00 0.00 0.00 41 1012.9
20260831170033 88 162 9.0 20.0 0.00 0.00 0.00 43 1012.9
20260831165117 88 148 8.0 14.0 0.00 0.00 0.00 43 1013.1
20260831164521 88 189 10.0 15.0 0.00 0.00 0.00 43 1013.1
20260831164019 87 205 8.0 16.0 0.00 0.00 0.00 44 1013.2
20260831163514 87 200 9.0 16.0 0.00 0.00 0.00 44 1013.1
20260831163016 86 187 9.0 15.0 0.00 0.00 0.00 45 1013.1
20260831162513 86 181 6.0 14.0 0.00 0.00 0.00 46 1013.0
20260831162013 86 156 9.0 15.0 0.00 0.00 0.00 46 1013.1
20260831161510 85 205 8.0 15.0 0.00 0.00 0.00 47 1013.2
20260831161010 85 206 9.0 14.0 0.00 0.00 0.00 47 1013.1
20260831160510 85 203 7.0 15.0 0.00 0.00 0.00 48 1013.1
20260831160012 84 174 7.0 14.0 0.00 0.00 0.00 49 1013.2
20260831155008 84 149 7.0 16.0 0.00 0.00 0.00 49 1013.1
20260831154518 84 212 10.0 16.0 0.00 0.00 0.00 50 1013.1
20260831154005 83 173 6.0 14.0 0.00 0.00 0.00 50 1013.1
20260831153504 83 196 8.0 14.0 0.00 0.00 0.00 51 1013.3
20260831153003 82 196 8.0 14.0 0.00 0.00 0.00 51 1013.3
20260831152503 82 190 9.0 14.0 0.00 0.00 0.00 51 1013.2
20260831152005 82 189 8.0 14.0 0.00 0.00 0.00 52 1013.3
20260831151504 82 190 9.0 14.0 0.00 0.00 0.00 52 1013.3
20260831151003 82 177 7.0 14.0 0.00 0.00 0.00 53 1013.3
20260831150503 82 191 9.0 14.0 0.00 0.00 0.00 53 1013.3
20260831150003 81 196 10.0 15.0 0.00 0.00 0.00 54 1013.2
20260831145003 81 199 10.0 14.0 0.00 0.00 0.00 54 1013.3
20260831144604 81 151 7.0 12.0 0.00 0.00 0.00 54 1013.1
20260831144004 80 176 7.0 13.0 0.00 0.00 0.00 55 1013.3
20260831143502 80 200 6.0 14.0 0.00 0.00 0.00 56 1013.3
20260831143002 80 213 8.0 14.0 0.00 0.00 0.00 56 1013.4
20260831142502 80 211 7.0 16.0 0.00 0.00 0.00 56 1013.3
20260831142000 79 203 7.0 16.0 0.00 0.00 0.00 57 1013.2
20260831141501 79 166 7.0 15.0 0.00 0.00 0.00 57 1013.1
20260831141000 79 189 9.0 15.0 0.00 0.00 0.00 57 1013.2
20260831140600 79 146 7.0 14.0 0.00 0.00 0.00 58 1013.1
20260831140100 79 193 6.0 14.0 0.00 0.00 0.00 58 1013.1
20260831135000 78 180 10.0 15.0 0.00 0.00 0.00 58 1013.0
20260831134501 78 201 9.0 14.0 0.00 0.00 0.00 59 1013.1
20260831134100 78 189 7.0 12.0 0.00 0.00 0.00 59 1013.2
20260831133559 78 193 7.0 14.0 0.00 0.00 0.00 59 1013.0
20260831133159 78 201 8.0 14.0 0.00 0.00 0.00 59 1013.0
20260831132558 78 163 8.0 14.0 0.00 0.00 0.00 59 1012.9
20260831132058 78 191 7.0 15.0 0.00 0.00 0.00 59 1012.9
20260831131559 78 161 7.0 15.0 0.00 0.00 0.00 59 1012.9
20260831131057 77 181 6.0 14.0 0.00 0.00 0.00 60 1012.7
20260831130555 77 193 8.0 14.0 0.00 0.00 0.00 60 1012.7
20260831130100 77 195 6.0 13.0 0.00 0.00 0.00 60 1012.7
20260831125051 77 154 6.0 10.0 0.00 0.00 0.00 60 1012.7
20260831124558 77 180 5.0 10.0 0.00 0.00 0.00 60 1012.6
20260831124049 77 168 5.0 9.0 0.00 0.00 0.00 60 1012.6
20260831123547 77 180 4.0 9.0 0.00 0.00 0.00 60 1012.5
20260831123047 77 160 4.0 8.0 0.00 0.00 0.00 59 1012.5
20260831122550 77 122 3.0 6.0 0.00 0.00 0.00 59 1012.5
20260831122046 77 182 1.0 5.0 0.00 0.00 0.00 59 1012.4
20260831121546 77 182 2.0 8.0 0.00 0.00 0.00 59 1012.4
20260831121045 78 184 3.0 9.0 0.00 0.00 0.00 59 1012.2
20260831120544 78 175 4.0 9.0 0.00 0.00 0.00 59 1012.2
20260831120044 78 196 3.0 9.0 0.00 0.00 0.00 58 1012.1
20260831115043 78 163 4.0 8.0 0.00 0.00 0.00 58 1012.2
20260831114542 78 181 4.0 11.0 0.00 0.00 0.00 58 1012.1
20260831114042 78 190 4.0 11.0 0.00 0.00 0.00 57 1012.2
20260831113539 78 177 4.0 9.0 0.00 0.00 0.00 57 1012.1
20260831113038 78 172 4.0 11.0 0.00 0.00 0.00 57 1012.3
20260831112537 78 202 6.0 11.0 0.00 0.00 0.00 57 1012.3
20260831112043 78 165 4.0 11.0 0.00 0.00 0.00 56 1012.1
20260831111539 79 175 6.0 12.0 0.00 0.00 0.00 56 1012.2
20260831111035 79 151 6.0 11.0 0.00 0.00 0.00 56 1012.1
20260831110535 79 194 7.0 11.0 0.00 0.00 0.00 56 1012.2
20260831110034 79 199 6.0 14.0 0.00 0.00 0.00 55 1012.2
20260831105034 79 193 6.0 14.0 0.00 0.00 0.00 55 1012.0
20260831104537 79 210 8.0 12.0 0.00 0.00 0.00 54 1011.9
20260831104032 79 189 4.0 11.0 0.00 0.00 0.00 54 1011.9
20260831103534 79 191 5.0 12.0 0.00 0.00 0.00 53 1012.0
20260831103032 80 195 5.0 12.0 0.00 0.00 0.00 53 1012.1
20260831102533 80 199 5.0 12.0 0.00 0.00 0.00 53 1012.0
20260831102033 80 181 7.0 18.0 0.00 0.00 0.00 52 1012.0
20260831101530 80 210 10.0 18.0 0.00 0.00 0.00 52 1012.0
20260831101029 80 192 6.0 13.0 0.00 0.00 0.00 51 1012.0
20260831100529 80 197 8.0 13.0 0.00 0.00 0.00 51 1012.0
20260831100029 80 187 7.0 11.0 0.00 0.00 0.00 50 1012.0
20260831095027 80 206 8.0 15.0 0.00 0.00 0.00 49 1012.0
20260831094532 80 189 6.0 13.0 0.00 0.00 0.00 48 1011.9
20260831094027 80 191 6.0 11.0 0.00 0.00 0.00 48 1012.0
20260831093526 81 189 5.0 11.0 0.00 0.00 0.00 47 1011.9
20260831093031 81 185 6.0 11.0 0.00 0.00 0.00 47 1011.9
20260831092526 81 191 6.0 11.0 0.00 0.00 0.00 47 1011.9
20260831092027 81 173 5.0 10.0 0.00 0.00 0.00 46 1011.9
20260831091524 81 172 4.0 13.0 0.00 0.00 0.00 46 1011.9
20260831091024 81 153 6.0 17.0 0.00 0.00 0.00 46 1011.8
20260831090524 81 178 7.0 17.0 0.00 0.00 0.00 45 1011.8
20260831090023 81 175 7.0 12.0 0.00 0.00 0.00 44 1011.9
20260831085023 81 191 5.0 10.0 0.00 0.00 0.00 43 1011.9
20260831084534 81 188 6.0 12.0 0.00 0.00 0.00 43 1011.9
20260831084021 82 178 5.0 12.0 0.00 0.00 0.00 42 1011.9
20260831083521 82 191 5.0 11.0 0.00 0.00 0.00 42 1012.0
20260831083036 82 195 5.0 11.0 0.00 0.00 0.00 42 1012.0
20260831082521 82 187 7.0 11.0 0.00 0.00 0.00 41 1011.9
20260831082020 82 198 5.0 11.0 0.00 0.00 0.00 41 1011.9
20260831081522 82 190 6.0 11.0 0.00 0.00 0.00 41 1011.8
20260831081024 82 196 5.0 11.0 0.00 0.00 0.00 41 1011.8
20260831080521 82 182 5.0 10.0 0.00 0.00 0.00 41 1011.7
20260831080027 82 189 5.0 9.0 0.00 0.00 0.00 41 1011.8
20260831075019 81 183 5.0 9.0 0.00 0.00 0.00 41 1012.0
20260831074520 81 198 4.0 9.0 0.00 0.00 0.00 41 1012.0
20260831074022 81 192 3.0 6.0 0.00 0.00 0.00 41 1012.1
20260831073520 81 172 3.0 4.0 0.00 0.00 0.00 40 1012.1
20260831073020 81 175 2.0 5.0 0.00 0.00 0.00 40 1012.1
20260831072518 81 175 3.0 6.0 0.00 0.00 0.00 40 1012.1
20260831072018 81 175 3.0 6.0 0.00 0.00 0.00 39 1011.9
20260831071516 81 180 3.0 5.0 0.00 0.00 0.00 39 1012.0
20260831071016 82 179 2.0 4.0 0.00 0.00 0.00 39 1011.9
20260831070515 82 179 2.0 5.0 0.00 0.00 0.00 38 1012.0
20260831070016 82 179 2.0 5.0 0.00 0.00 0.00 38 1011.9
20260831065016 82 177 2.0 5.0 0.00 0.00 0.00 38 1012.0
20260831064516 82 177 2.0 5.0 0.00 0.00 0.00 38 1012.0
20260831064015 82 173 2.0 4.0 0.00 0.00 0.00 38 1012.0
20260831063513 82 173 1.0 4.0 0.00 0.00 0.00 37 1012.0
20260831063013 82 173 2.0 4.0 0.00 0.00 0.00 37 1012.0
20260831062512 82 173 1.0 3.0 0.00 0.00 0.00 37 1012.0
20260831062012 83 173 1.0 4.0 0.00 0.00 0.00 37 1012.0
20260831061511 83 173 2.0 4.0 0.00 0.00 0.00 36 1011.9
20260831061011 83 173 2.0 4.0 0.00 0.00 0.00 36 1012.0
20260831060510 83 172 2.0 4.0 0.00 0.00 0.00 36 1012.0
20260831060009 84 165 1.0 4.0 0.00 0.00 0.00 35 1011.8
20260831055008 84 165 1.0 4.0 0.00 0.00 0.00 35 1011.8
20260831054508 84 164 1.0 4.0 0.00 0.00 0.00 35 1011.8
20260831054007 84 164 2.0 4.0 0.00 0.00 0.00 34 1011.8
20260831053507 84 164 2.0 5.0 0.00 0.00 0.00 34 1011.8
20260831053007 84 160 3.0 5.0 0.00 0.00 0.00 34 1011.9
20260831052506 85 163 3.0 5.0 0.00 0.00 0.00 34 1011.9
20260831052007 85 162 2.0 5.0 0.00 0.00 0.00 33 1011.8
20260831051508 85 169 2.0 5.0 0.00 0.00 0.00 33 1011.8
20260831051004 85 169 2.0 6.0 0.00 0.00 0.00 32 1011.8
20260831050501 86 171 2.0 6.0 0.00 0.00 0.00 32 1011.7
20260831050100 86 164 3.0 8.0 0.00 0.00 0.00 32 1011.7
20260831045001 87 195 5.0 12.0 0.00 0.00 0.00 31 1011.7
20260831044607 87 188 6.0 12.0 0.00 0.00 0.00 31 1011.7
20260831044101 87 199 6.0 10.0 0.00 0.00 0.00 30 1011.6
20260831043559 87 198 6.0 11.0 0.00 0.00 0.00 30 1011.6
20260831043100 87 206 7.0 11.0 0.00 0.00 0.00 30 1011.5
20260831042602 87 201 6.0 14.0 0.00 0.00 0.00 30 1011.4
20260831042059 88 200 8.0 14.0 0.00 0.00 0.00 30 1011.4
20260831041659 88 193 8.0 14.0 0.00 0.00 0.00 30 1011.3
20260831041100 88 191 7.0 14.0 0.00 0.00 0.00 29 1011.3
20260831040559 88 199 7.0 15.0 0.00 0.00 0.00 29 1011.2
20260831040059 88 222 7.0 12.0 0.00 0.00 0.00 29 1011.3
20260831035007 88 183 7.0 12.0 0.00 0.00 0.00 29 1011.2
20260831034507 88 185 5.0 10.0 0.00 0.00 0.00 29 1011.1
20260831034006 88 190 4.0 10.0 0.00 0.00 0.00 29 1011.1
20260831033506 88 200 5.0 9.0 0.00 0.00 0.00 29 1011.0
20260831033007 88 190 5.0 9.0 0.00 0.00 0.00 28 1010.9
20260831032507 88 187 4.0 9.0 0.00 0.00 0.00 28 1010.8
20260831032007 88 194 3.0 9.0 0.00 0.00 0.00 28 1010.8
20260831031515 89 189 4.0 9.0 0.00 0.00 0.00 28 1010.8
20260831031006 89 196 3.0 8.0 0.00 0.00 0.00 28 1010.7
20260831030507 89 175 4.0 8.0 0.00 0.00 0.00 28 1010.6
20260831030006 89 191 3.0 8.0 0.00 0.00 0.00 28 1010.7
20260831025057 89 187 4.0 8.0 0.00 0.00 0.00 28 1010.6
20260831024604 89 191 3.0 6.0 0.00 0.00 0.00 28 1010.5
20260831024058 89 191 3.0 6.0 0.00 0.00 0.00 27 1010.4
20260831023557 90 194 3.0 6.0 0.00 0.00 0.00 27 1010.3
20260831023057 90 193 3.0 8.0 0.00 0.00 0.00 27 1010.0
20260831022556 90 187 4.0 10.0 0.00 0.00 0.00 27 1009.9
20260831022057 91 196 5.0 10.0 0.00 0.00 0.00 26 1010.0
20260831021602 91 191 4.0 9.0 0.00 0.00 0.00 26 1009.9
20260831021056 91 197 5.0 11.0 0.00 0.00 0.00 26 1009.8
20260831020556 91 188 7.0 11.0 0.00 0.00 0.00 25 1009.8
20260831020156 91 212 6.0 11.0 0.00 0.00 0.00 25 1009.7
20260831015058 92 191 5.0 10.0 0.00 0.00 0.00 25 1009.6
20260831014612 92 180 5.0 11.0 0.00 0.00 0.00 24 1009.6
20260831014058 92 184 5.0 11.0 0.00 0.00 0.00 24 1009.5
20260831013558 92 193 5.0 9.0 0.00 0.00 0.00 24 1009.5
20260831013059 93 190 4.0 13.0 0.00 0.00 0.00 23 1009.6
20260831012558 93 200 7.0 13.0 0.00 0.00 0.00 23 1009.5
20260831012059 93 193 5.0 11.0 0.00 0.00 0.00 23 1009.5
20260831011613 94 200 5.0 15.0 0.00 0.00 0.00 22 1009.4
20260831011057 94 176 9.0 15.0 0.00 0.00 0.00 22 1009.4
20260831010557 94 196 7.0 12.0 0.00 0.00 0.00 22 1009.4
20260831010058 94 184 5.0 12.0 0.00 0.00 0.00 22 1009.3
20260831005058 95 164 6.0 16.0 0.00 0.00 0.00 21 1009.2
20260831004558 95 183 7.0 16.0 0.00 0.00 0.00 21 1009.2
20260831004158 95 198 7.0 13.0 0.00 0.00 0.00 21 1009.1
20260831003557 95 203 8.0 14.0 0.00 0.00 0.00 22 1009.1
20260831003057 96 153 7.0 14.0 0.00 0.00 0.00 22 1009.1
20260831002600 96 159 6.0 14.0 0.00 0.00 0.00 22 1009.0
20260831002059 96 187 7.0 15.0 0.00 0.00 0.00 22 1009.0
20260831001604 96 164 6.0 14.0 0.00 0.00 0.00 22 1008.9
20260831001059 96 200 8.0 13.0 0.00 0.00 0.00 21 1008.9
20260831000557 97 191 5.0 12.0 0.00 0.00 0.00 19 1008.9
20260830235054 97 199 5.0 14.0 0.00 0.00 0.00 20 1008.9
20260830234553 97 187 6.0 13.0 0.00 0.00 0.00 20 1008.9
20260830234053 97 201 8.0 13.0 0.00 0.00 0.00 20 1008.9
20260830233553 97 214 6.0 13.0 0.00 0.00 0.00 20 1009.0
20260830233103 97 171 8.0 13.0 0.00 0.00 0.00 20 1009.0
20260830232556 97 193 8.0 16.0 0.00 0.00 0.00 21 1008.9
20260830232053 97 219 10.0 16.0 0.00 0.00 0.00 21 1009.0
20260830231558 98 198 10.0 15.0 0.00 0.00 0.00 21 1008.9
20260830231052 97 191 7.0 19.0 0.00 0.00 0.00 21 1009.0
20260830230552 97 190 12.0 19.0 0.00 0.00 0.00 21 1009.0
20260830230053 97 193 10.0 17.0 0.00 0.00 0.00 21 1008.9
20260830225056 98 191 7.0 13.0 0.00 0.00 0.00 20 1008.9
20260830224616 98 200 6.0 10.0 0.00 0.00 0.00 20 1008.9
20260830224056 98 210 7.0 12.0 0.00 0.00 0.00 19 1009.0
20260830223555 98 170 8.0 12.0 0.00 0.00 0.00 20 1009.0
20260830223057 98 154 6.0 15.0 0.00 0.00 0.00 19 1009.0
20260830222559 98 202 8.0 15.0 0.00 0.00 0.00 19 1009.0
20260830222054 98 165 9.0 14.0 0.00 0.00 0.00 19 1009.1
20260830221602 98 233 5.0 10.0 0.00 0.00 0.00 18 1009.2
20260830221053 98 258 6.0 13.0 0.00 0.00 0.00 17 1009.2
20260830220553 98 179 6.0 15.0 0.00 0.00 0.00 18 1009.3
20260830220057 98 213 11.0 15.0 0.00 0.00 0.00 17 1009.3
20260830215051 97 177 7.0 14.0 0.00 0.00 0.00 18 1009.4
20260830214556 98 152 8.0 14.0 0.00 0.00 0.00 18 1009.5
20260830214050 98 152 4.0 14.0 0.00 0.00 0.00 18 1009.4
20260830213549 98 192 9.0 18.0 0.00 0.00 0.00 18 1009.5
20260830213049 98 185 10.0 18.0 0.00 0.00 0.00 18 1009.7
20260830212548 98 181 5.0 14.0 0.00 0.00 0.00 18 1009.7
20260830212051 98 203 7.0 15.0 0.00 0.00 0.00 19 1009.8
20260830211547 97 150 6.0 15.0 0.00 0.00 0.00 18 1009.9
20260830211049 97 190 7.0 15.0 0.00 0.00 0.00 19 1009.8
20260830210546 97 174 9.0 17.0 0.00 0.00 0.00 18 1010.0
20260830210044 97 180 10.0 17.0 0.00 0.00 0.00 20 1010.0
20260830205049 96 164 7.0 19.0 0.00 0.00 0.00 20 1010.3
20260830204546 96 226 8.0 19.0 0.00 0.00 0.00 21 1010.3
20260830204047 97 215 7.0 12.0 0.00 0.00 0.00 22 1010.4
20260830203544 97 191 6.0 15.0 0.00 0.00 0.00 21 1010.5
20260830203043 97 178 7.0 18.0 0.00 0.00 0.00 20 1010.7
20260830202543 97 196 9.0 18.0 0.00 0.00 0.00 21 1010.8
20260830202041 97 154 7.0 14.0 0.00 0.00 0.00 20 1010.8
20260830201542 97 177 6.0 14.0 0.00 0.00 0.00 19 1011.0
20260830201039 96 252 5.0 17.0 0.00 0.00 0.00 20 1011.0
20260830200541 96 216 10.0 19.0 0.00 0.00 0.00 20 1011.2
20260830200038 96 198 7.0 19.0 0.00 0.00 0.00 22 1011.1
20260830195053 96 173 7.0 15.0 0.00 0.00 0.00 22 1011.4
20260830194549 95 164 8.0 15.0 0.00 0.00 0.00 21 1011.4
20260830194051 95 202 8.0 16.0 0.00 0.00 0.00 22 1011.5
20260830193546 95 189 9.0 16.0 0.00 0.00 0.00 23 1011.6
20260830193043 95 201 6.0 15.0 0.00 0.00 0.00 24 1011.7
20260830192542 94 198 3.0 15.0 0.00 0.00 0.00 25 1011.8
20260830192040 94 208 10.0 17.0 0.00 0.00 0.00 25 1011.8
20260830191540 94 213 9.0 17.0 0.00 0.00 0.00 24 1011.8
20260830191039 94 239 8.0 15.0 0.00 0.00 0.00 26 1011.8
20260830190538 94 231 7.0 16.0 0.00 0.00 0.00 25 1012.0
20260830190037 94 271 8.0 19.0 0.00 0.00 0.00 27 1011.9
20260830185024 93 214 7.0 15.0 0.00 0.00 0.00 28 1012.0
20260830184524 93 212 8.0 17.0 0.00 0.00 0.00 28 1012.1
20260830184023 93 227 11.0 18.0 0.00 0.00 0.00 28 1012.1
20260830183522 93 185 11.0 18.0 0.00 0.00 0.00 29 1012.1